Hourly Data Report for May 28, 2012

All times are specified in Local Standard Time (LST). Add 1 hour to adjust for Daylight Saving Time where and when it is observed.

GANDER INTL A
NEWFOUNDLAND

48°56'13.000" N
54°34'05.000" W
151.20 m
8401703
71803
YQX

Related Data

No related data is available for this station

Download Data

Hourly Data (May 2012)
Hourly Data Report for May 28, 2012
Temp Definition
°C
Dew Point Temp Definition
°C
Rel Hum Definition
%
Wind Dir Definition
10's deg

Wind Spd Definition
km/h
Visibility Definition
km
Stn Press Definition
kPa
Hmdx Definition


Wind Chill Definition


Weather Definition


TIME
00:30 Legend Double Dagger 1.5 -0.4 87 20 9 10.0 99.69     LegendNANA
01:30 Legend Double Dagger 1.6 -0.3 87 23 6 10.0 99.68     LegendNANA
02:30 Legend Double Dagger 0.9 -0.4 91   0 10.0 99.69     Mostly Cloudy
03:30 Legend Double Dagger 1.6 0.1 90   0 10.0 99.65     LegendNANA
04:30 Legend Double Dagger 1.3 -0.2 90 18 4 10.0 99.66     LegendNANA
05:30 Legend Double Dagger 1.5 0.2 91 15 6 10.0 99.66     Mainly Clear
06:30 Legend Double Dagger 3.1 0.5 83 16 9 10.0 99.64     LegendNANA
07:30 Legend Double Dagger 5.0 0.8 74 17 10 10.0 99.62     LegendNANA
08:30 Legend Double Dagger 6.8 0.3 63 27 10 10.0 99.59     Mostly Cloudy
09:30 Legend Double Dagger 6.2 1.0 69 30 7 10.0 99.52     Rain Showers
10:30 Legend Double Dagger 7.6 1.3 64 20 10 10.0 99.47     LegendNANA
11:30 Legend Double Dagger 7.9 2.6 69 36 11 10.0 99.43     Mostly Cloudy
12:30 Legend Double Dagger 5.2 1.9 79 32 31 10.0 99.43     Rain Showers
13:30 Legend Double Dagger 5.5 3.7 88 10 27 10.0 99.40     LegendNANA
14:30 Legend Double Dagger 4.1 2.8 91 9 17 10.0 99.44     Rain Showers
15:30 Legend Double Dagger 3.2 2.3 94 8 16 10.0 99.49     Rain Showers
16:30 Legend Double Dagger 3.2 2.0 92 6 20 10.0 99.51     Rain Showers
17:30 Legend Double Dagger 3.1 1.5 89 5 16 10.0 99.54     Mostly Cloudy
18:30 Legend Double Dagger 3.0 -0.1 80 6 14 10.0 99.57     LegendNANA
19:30 Legend Double Dagger 2.5 0.9 89 5 9 10.0 99.59     LegendNANA
20:30 Legend Double Dagger 1.3 0.1 92 10 4 10.0 99.64     Mainly Clear
21:30 Legend Double Dagger 1.2 0.3 94 31 4 10.0 99.67     LegendNANA
22:30 Legend Double Dagger -0.2 -1.3 92 36 10 10.0 99.67   -4 LegendNANA
23:30 Legend Double Dagger -0.7 -2.0 91 35 8 10.0 99.70   -4 Mostly Cloudy

Notes on Data Quality.

Legend

  • E = Estimated
  • M = Missing
  • NA = Not Available
  • ‡ = Partner data that is not subject to review by the National Climate Archives
Date modified: